Weather in Kuybyshevo

Russia / Republic of Crimea     44°37′45″N   33°51′54″E
temp.,
°C
wind,
m/s
gust,
m/s
humid.,
%
clouds,
%
prec.,
mm/h
press.,
hPa
HPBL,
m
8 march, mon
mon800:00−1s226149 0.0 102346
03:00−1s226346 0.0 102144
06:00−1s236526 0.0 101961
09:00+3ssw465960 0.0 1018901
12:00+5sw675699 0.0 10181341
15:00+5sw7860100 0.1 10171295
18:00+4sw686899 0.1 1016950
21:00+3ssw4877100 0.2 1016495
9 march, tue
tue900:00+4sw4786100 0.6 1016529
03:00+3nnw1377100 1.6 1016206
06:00+1se228934 0.1 101622
09:00+3nne127117 0.1 1018325
12:00+5n335827 0.0 1019983
15:00+6nnw555935 0.1 1020980
18:00+4nw44530 0.0 1020610
21:00+1nne24534 0.0 1022104
10 march, wed
wed1000:00−1ne23560 0.0 102359
03:00−1ne23572 0.0 102383
06:00−1ene236061 0.0 102266
09:00+1ene345780 0.0 1022292
12:00+5ene1244100 0.0 10221122
15:00+6nne2242100 0.0 10201460
18:00+4ne4559100 0.0 1019417
21:00+2e3571100 0.0 1019190
11 march, thu
thu1100:00+1ene3472100 0.0 1020157
03:000ne6965100 0.0 1020413
06:00−2ne6117680 0.0 1021465
09:000ne696085 0.0 1022827
12:00+3ne67470 0.0 10241181
15:00+4nne55390 0.0 10251460
18:00+2nne44460 0.0 10261071
21:00−1ene23610 0.0 102776
12 march, fri
fri1200:00−1se12630 0.0 102724
03:00−1se22630 0.0 102732
06:00−2se22620 0.0 102640
09:00+2sse36540 0.0 1026553
12:00+5s57500 0.0 10251122
15:00+5s675139 0.0 10231012
18:00+4sse585988 0.0 1021610
21:00+2sse596794 0.1 1020436